Weather History for McConnell AFB, KS

Change the Weather History Date:

Thursday, April 11, 2013

  Actual Average Record
Temperature  
Mean Temperature 40 °F -  
Max Temperature 52 °F 65 °F 80 °F (2014)
Min Temperature 28 °F 44 °F 26 °F (1997)
Degree Days  
Heating Degree Days 25    
Moisture  
Dew Point 30 °F    
Average Humidity 77    
Maximum Humidity 100    
Minimum Humidity 41    
Precipitation  
Precipitation 0.00 in - - ()
Sea Level Pressure  
Sea Level Pressure 29.86 in    
Wind  
Wind Speed 12 mph (NW)    
Max Wind Speed 17 mph    
Max Gust Speed 23 mph    
Visibility 10 miles    
Events      
Averages and records for this station are not official NWS values.
T = Trace of Precipitation, MM = Missing Value Source: NWS Daily Summary

Daily Weather History Graph

Daily Weather History Graph

Search for Another Location

Airport:

Trip Planner

Search our weather history database for the weather conditions in past years. The results will help you decide how hot, cold, wet, or windy it might be!

Date:

Astronomy

Apr. 11, 2013 Rise Set
Actual Time 6:59 AM CDT 8:01 PM CDT
Civil Twilight 6:32 AM CDT 8:28 PM CDT
Nautical Twilight 6:00 AM CDT 9:00 PM CDT
Astronomical Twilight 5:27 AM CDT 9:33 PM CDT
Moon 7:33 AM CDT (4/11) 9:34 PM CDT (4/11)
Length of Visible Light 13h 55m
Length of Day
13h 01m
New Moon, 2% of the Moon is Illuminated
Apr 11
New Moon
Apr 18
First Quarter
Apr 25
Full
May 2
Last Quarter
May 9
New

Hourly Weather History & Observations

Time (CDT) Temp. Windchill Dew Point Humidity Pressure Visibility Wind Dir Wind Speed Gust Speed Precip Events Conditions
12:03 AM 32.0 °F 23.0 °F 32.0 °F 100% 29.95 in 10.0 mi WNW 11.5 mph 17.3 mph N/A   Overcast
12:08 AM 32.0 °F 22.1 °F 32.0 °F 100% 29.95 in 10.0 mi NW 13.8 mph 19.6 mph N/A   Overcast
12:23 AM 32.0 °F 22.5 °F 32.0 °F 100% 29.94 in 10.0 mi NW 12.7 mph - N/A   Overcast
12:58 AM 31.5 °F 22.3 °F 31.3 °F 99% 29.99 in 10.0 mi WNW 11.5 mph - N/A   Overcast
1:58 AM 31.1 °F 19.7 °F 30.2 °F 96% 29.94 in 10.0 mi NW 17.3 mph 23.0 mph N/A   Overcast
2:58 AM 30.6 °F 19.4 °F 29.8 °F 97% 29.93 in 10.0 mi NNW 16.1 mph 20.7 mph N/A   Overcast
3:18 AM 30.2 °F 21.3 °F 28.4 °F 93% 29.88 in 10.0 mi NW 10.4 mph - N/A   Mostly Cloudy
3:28 AM 30.2 °F 23.4 °F 28.4 °F 93% 29.88 in 10.0 mi NW 6.9 mph - N/A   Mostly Cloudy
3:58 AM 30.0 °F 20.0 °F 29.1 °F 96% 29.93 in 10.0 mi NW 12.7 mph - N/A   Mostly Cloudy
4:18 AM 30.2 °F 21.3 °F 30.2 °F 100% 29.87 in 10.0 mi NW 10.4 mph - N/A   Scattered Clouds
4:23 AM 30.2 °F 20.8 °F 30.2 °F 100% 29.87 in 10.0 mi NW 11.5 mph - N/A   Mostly Cloudy
4:58 AM 30.0 °F 21.7 °F 29.8 °F 99% 29.91 in 10.0 mi WNW 9.2 mph - N/A   Overcast
5:13 AM 30.2 °F 22.6 °F 30.2 °F 100% 29.87 in 10.0 mi WNW 8.1 mph - N/A   Scattered Clouds
5:58 AM 29.5 °F 23.4 °F 29.1 °F 99% 29.91 in 10.0 mi West 5.8 mph - N/A   Clear
6:58 AM 28.8 °F 20.9 °F 28.4 °F 99% 29.90 in 10.0 mi WNW 8.1 mph - N/A   Partly Cloudy
7:58 AM 28.9 °F 19.8 °F 28.2 °F 97% 29.91 in 8.0 mi WNW 10.4 mph - N/A   Clear
8:58 AM 30.7 °F 22.0 °F 28.2 °F 90% 29.91 in 6.0 mi WNW 10.4 mph - N/A   Clear
9:58 AM 32.5 °F 25.5 °F 29.7 °F 89% 29.88 in 10.0 mi NW 8.1 mph - N/A   Partly Cloudy
10:58 AM 34.7 °F 27.5 °F 29.1 °F 80% 29.89 in 10.0 mi WNW 9.2 mph - N/A   Partly Cloudy
11:58 AM 36.7 °F 28.4 °F 30.2 °F 77% 29.89 in 10.0 mi West 12.7 mph - N/A   Scattered Clouds
12:03 PM 37.4 °F 29.3 °F 32.0 °F 81% 29.85 in 10.0 mi WSW 12.7 mph 18.4 mph N/A   Mostly Cloudy
12:08 PM 37.4 °F 30.3 °F 32.0 °F 81% 29.84 in 10.0 mi West 10.4 mph - N/A   Scattered Clouds
12:33 PM 39.2 °F 31.2 °F 28.4 °F 65% 29.84 in 10.0 mi WNW 13.8 mph - N/A   Mostly Cloudy
12:38 PM 39.2 °F 31.6 °F 28.4 °F 65% 29.84 in 10.0 mi WNW 12.7 mph - N/A   Scattered Clouds
12:58 PM 40.5 °F 32.1 °F 30.7 °F 68% 29.86 in 10.0 mi West 16.1 mph 18.4 mph N/A   Partly Cloudy
1:58 PM 41.9 °F 34.3 °F 30.2 °F 63% 29.83 in 10.0 mi NW 15.0 mph 19.6 mph N/A   Partly Cloudy
2:58 PM 45.3 °F 39.7 °F 32.0 °F 60% 29.82 in 10.0 mi WNW 11.5 mph 20.7 mph N/A   Partly Cloudy
3:17 PM 46.4 °F 40.7 °F 32.0 °F 57% 29.78 in 10.0 mi West 12.7 mph 20.7 mph N/A   Scattered Clouds
3:20 PM 46.4 °F 41.1 °F 32.0 °F 57% 29.78 in 10.0 mi WNW 11.5 mph - N/A   Scattered Clouds
3:58 PM 48.0 °F - 31.3 °F 52% 29.80 in 10.0 mi WNW 12.7 mph - N/A   Partly Cloudy
4:33 PM 48.2 °F - 30.2 °F 50% 29.75 in 10.0 mi West 12.7 mph 21.9 mph N/A   Partly Cloudy
4:39 PM 48.2 °F - 30.2 °F 50% 29.75 in 10.0 mi NW 15.0 mph 20.7 mph N/A   Partly Cloudy
4:40 PM 48.2 °F - 30.2 °F 50% 29.75 in 10.0 mi NW 13.8 mph 20.7 mph N/A   Partly Cloudy
4:56 PM 48.2 °F - 30.2 °F 50% 29.74 in 10.0 mi NW 12.7 mph - N/A   Partly Cloudy
4:58 PM 48.2 °F - 30.2 °F 50% 29.77 in 10.0 mi NW 12.7 mph - N/A   Partly Cloudy
5:58 PM 52.0 °F - 28.8 °F 41% 29.76 in 10.0 mi WNW 11.5 mph - N/A   Clear
6:58 PM 51.8 °F - 28.9 °F 41% 29.76 in 10.0 mi NNW 8.1 mph - N/A   Clear
7:58 PM 47.8 °F - 34.3 °F 60% 29.78 in 10.0 mi Variable 2.3 mph - N/A   Clear
8:58 PM 43.5 °F 37.5 °F 33.4 °F 68% 29.83 in 10.0 mi NNE 11.5 mph - N/A   Clear
9:58 PM 41.0 °F 34.3 °F 32.4 °F 71% 29.86 in 10.0 mi NNE 11.5 mph - N/A   Clear
10:58 PM 37.8 °F 31.3 °F 31.8 °F 79% 29.90 in 10.0 mi North 9.2 mph - N/A   Clear
11:58 PM 36.7 °F 30.5 °F 30.4 °F 78% 29.90 in 10.0 mi North 8.1 mph - N/A   Clear